Voltar ao catálogo

STARLINK-3830

AtivoComunicaçõesVLEO
NORAD 52363·PAYLOAD·🇺🇸 United States

Lançado Apr 29, 2022 de Cape Canaveral Space Force Station

Loading…

Próximas Passagens (próximas 24 horas)

TLE

AtualizadoSource: CelesTrak SupGP

Época: Sep 15, 2026, 01:31 UTC

1 52363C 22045AJ  26258.06368056 -.00031731  00000+0 -93755-3 0  2585
2 52363  53.1593  55.4586 0001207  79.7861 151.4615 15.34404987    17

Acompanhe STARLINK-3830 em tempo real com AllMySat

Download on the App Store